EDT,Max TemperatureF,Mean TemperatureF,Min TemperatureF,Max Dew PointF,MeanDew PointF,Min DewpointF,Max Humidity, Mean Humidity, Min Humidity, Max Sea Level PressureIn, Mean Sea Level PressureIn, Min Sea Level PressureIn, Max VisibilityMiles, Mean VisibilityMiles, Min VisibilityMiles, Max Wind SpeedMPH, Mean Wind SpeedMPH, Max Gust SpeedMPH,PrecipitationIn, CloudCover, Events, WindDirDegrees
2012-10-1,87,78,69,73,72,70,100,84,55,29.85,29.79,29.73,10,7,0,12,3,,0.00,5,Fog-Thunderstorm,139
2012-10-2,86,80,75,75,71,66,100,82,55,29.99,29.85,29.76,10,10,8,10,4,,0.00,4,,178
2012-10-3,82,76,69,73,69,64,100,84,54,30.21,30.10,29.99,10,10,5,6,0,,0.01,3,Rain,213
2012-10-4,82,74,66,70,68,66,100,88,58,30.28,30.22,30.18,10,9,1,7,0,,0.03,4,Rain,304
2012-10-5,82,72,62,70,64,63,100,81,51,30.21,30.13,30.04,10,9,5,6,0,,0.00,0,,18
2012-10-6,87,74,62,68,63,59,100,74,38,30.05,29.98,29.90,10,9,4,13,1,16,0.00,1,,264
2012-10-7,87,76,64,70,65,61,100,75,43,30.07,29.98,29.95,10,8,3,13,3,16,0.00,1,,278
2012-10-8,64,60,55,61,53,50,100,85,72,30.15,30.10,30.06,10,10,3,13,8,16,0.00,7,Rain,21
2012-10-9,69,58,48,52,51,46,100,82,53,30.18,30.13,30.08,10,10,4,12,5,,0.00,5,,4
2012-10-10,77,60,42,59,52,43,100,80,44,30.16,30.11,30.05,10,9,0,10,2,16,0.00,3,Fog,261
2012-10-11,75,60,46,54,49,45,100,74,38,30.30,30.23,30.16,10,10,8,13,1,20,0.00,0,,59
2012-10-12,84,66,48,59,54,46,100,71,39,30.28,30.21,30.14,10,10,9,9,1,,0.00,1,,308
2012-10-13,77,66,55,57,55,50,88,70,50,30.40,30.32,30.27,10,10,9,12,3,16,0.00,1,,64
2012-10-14,82,68,55,70,60,52,100,78,48,30.32,30.19,30.05,10,10,3,9,2,,0.05,3,,128
2012-10-15,82,71,60,70,62,50,100,80,54,30.06,29.91,29.80,10,8,1,15,3,24,0.00,2,,242
2012-10-16,73,58,44,52,45,37,100,65,27,30.00,29.93,29.89,10,10,10,13,1,,0.00,0,,28
2012-10-17,73,60,48,54,49,37,100,74,27,30.02,29.95,29.91,10,10,3,9,0,,0.00,0,,125
2012-10-18,80,66,53,64,59,52,100,80,51,29.93,29.85,29.79,10,10,7,10,1,,0.00,2,Thunderstorm,175
2012-10-19,78,64,51,66,47,32,100,59,18,29.88,29.82,29.77,10,9,0,14,3,22,0.01,1,Fog,249
2012-10-20,75,58,42,48,44,41,93,65,31,29.97,29.88,29.84,10,10,10,13,2,20,0.00,0,,260
2012-10-21,73,58,42,46,44,39,100,68,33,30.16,30.09,29.97,10,10,10,13,2,,0.00,0,,34
2012-10-22,78,60,42,50,46,41,100,68,30,30.26,30.19,30.13,10,10,8,7,0,,0.00,0,,39
2012-10-23,80,61,42,54,46,39,100,65,24,30.23,30.17,30.11,10,10,7,7,0,,0.00,0,,121
2012-10-24,82,66,50,61,55,48,100,75,39,30.21,30.14,30.08,10,8,0,8,1,,0.00,3,Fog,96
2012-10-25,84,72,59,64,61,57,100,76,45,30.12,30.08,30.03,10,10,7,14,3,17,0.00,1,Thunderstorm,84
2012-10-26,80,70,60,64,59,54,100,73,39,30.04,29.96,29.86,10,10,10,16,6,22,0.00,0,,23
2012-10-27,75,70,64,61,59,52,88,72,53,29.85,29.73,29.64,10,10,10,20,11,30,0.00,3,,355
2012-10-28,77,67,57,54,51,46,88,60,36,29.71,29.66,29.61,10,10,10,14,8,21,0.00,2,,324
2012-10-29,64,54,44,41,35,32,76,49,32,29.74,29.68,29.58,10,10,10,18,8,29,0.00,2,,294
2012-10-30,60,53,46,34,28,23,58,42,27,29.76,29.64,29.58,10,10,10,20,10,28,0.00,1,,256
2012-10-31,66,55,44,30,25,16,57,36,14,29.86,29.80,29.76,10,10,10,17,8,25,0.00,0,,252